Total_Precipitation_Accumulation
0.11 0.12 0.16 0.22 0.24 0.25 0.25 0.24 0.25 0.28 0.31 0.34 0.31 0.30 0.32 0.37 0.45 0.51 0.52 0.55 0.58 0.58 0.58 0.58 0.58 0.57 0.58 0.56 0.56 0.57 0.61 0.77 0.79 0.32 0.19 0.26 0.38 0.43 0.43 0.40 0.39 0.39 0.38
0.12 0.14 0.15 0.21 0.27 0.31 0.33 0.34 0.35 0.36 0.36 0.37 0.38 0.37 0.33 0.32 0.38 0.45 0.50 0.52 0.57 0.60 0.62 0.65 0.66 0.67 0.68 0.67 0.68 0.66 0.65 0.69 0.81 0.57 0.30 0.28 0.36 0.43 0.48 0.48 0.41 0.38 0.36
0.12 0.15 0.18 0.22 0.28 0.36 0.40 0.43 0.42 0.43 0.45 0.44 0.42 0.44 0.43 0.43 0.46 0.48 0.51 0.54 0.55 0.56 0.58 0.63 0.67 0.73 0.77 0.74 0.74 0.72 0.66 0.60 0.65 0.66 0.44 0.33 0.36 0.42 0.48 0.51 0.49 0.47 0.43
0.18 0.20 0.26 0.33 0.36 0.41 0.45 0.46 0.47 0.48 0.50 0.52 0.51 0.49 0.52 0.59 0.72 0.75 0.65 0.63 0.61 0.58 0.57 0.62 0.68 0.78 0.87 0.93 0.98 0.87 0.78 0.79 0.78 0.78 0.64 0.49 0.45 0.46 0.58 0.62 0.60 0.57 0.55
0.31 0.34 0.34 0.35 0.39 0.39 0.40 0.43 0.46 0.50 0.52 0.53 0.52 0.53 0.55 0.67 0.98 1.02 0.85 0.74 0.68 0.65 0.62 0.63 0.67 0.82 1.01 1.20 1.31 1.25 1.18 1.19 1.12 1.08 0.92 0.73 0.62 0.64 0.70 0.68 0.72 0.64 0.63
0.40 0.41 0.39 0.36 0.36 0.40 0.40 0.40 0.43 0.47 0.47 0.46 0.47 0.48 0.57 0.71 1.08 1.13 0.94 0.73 0.69 0.69 0.69 0.63 0.60 0.68 0.79 0.95 1.16 1.24 1.32 1.40 1.42 1.35 1.24 1.07 0.80 0.71 0.75 0.88 0.99 0.99 0.86
0.41 0.44 0.44 0.40 0.35 0.37 0.39 0.36 0.36 0.36 0.37 0.37 0.38 0.39 0.44 0.60 0.96 1.04 0.90 0.67 0.59 0.60 0.60 0.57 0.55 0.54 0.58 0.57 0.69 0.78 0.88 1.04 1.25 1.39 1.46 1.19 0.95 0.84 0.98 1.17 1.21 1.18 0.96
0.38 0.38 0.39 0.34 0.28 0.28 0.32 0.30 0.28 0.28 0.32 0.35 0.35 0.34 0.32 0.38 0.74 0.99 0.86 0.57 0.51 0.52 0.51 0.53 0.55 0.53 0.52 0.58 0.66 0.69 0.65 0.68 0.88 1.11 1.26 1.13 1.03 1.03 1.19 1.44 1.59 1.64 1.33
0.27 0.24 0.26 0.22 0.20 0.22 0.26 0.24 0.23 0.23 0.26 0.30 0.33 0.36 0.35 0.34 0.57 0.94 0.95 0.58 0.54 0.50 0.50 0.61 0.66 0.60 0.62 0.75 0.87 0.85 0.69 0.59 0.64 0.91 1.16 1.20 1.24 1.42 1.62 1.95 2.22 2.29 1.99
0.19 0.17 0.20 0.17 0.15 0.17 0.22 0.21 0.22 0.22 0.25 0.28 0.31 0.38 0.38 0.35 0.49 0.87 1.10 0.71 0.61 0.53 0.53 0.64 0.87 0.84 0.81 0.85 0.91 0.93 0.89 0.67 0.59 0.63 0.72 0.81 0.86 0.93 1.25 1.60 1.83 2.04 2.02
0.13 0.14 0.19 0.19 0.15 0.14 0.17 0.20 0.21 0.23 0.26 0.27 0.29 0.33 0.37 0.34 0.40 0.69 1.13 1.00 0.77 0.66 0.64 0.69 0.81 0.85 0.84 0.86 0.92 0.91 0.93 0.87 0.84 0.82 0.76 0.69 0.71 0.82 0.96 1.21 1.44 1.66 1.85
0.11 0.13 0.18 0.23 0.18 0.15 0.16 0.18 0.19 0.21 0.26 0.27 0.29 0.31 0.33 0.34 0.39 0.56 0.89 1.07 0.96 0.75 0.70 0.63 0.70 0.76 0.81 0.84 0.83 0.86 0.90 0.91 0.88 0.83 0.75 0.67 0.65 0.71 0.79 0.95 1.19 1.33 1.43
0.10 0.14 0.18 0.22 0.19 0.17 0.19 0.19 0.18 0.20 0.26 0.31 0.32 0.34 0.32 0.34 0.40 0.55 0.67 0.74 0.83 0.76 0.74 0.87 0.81 0.76 0.73 0.67 0.63 0.70 0.72 0.70 0.74 0.73 0.62 0.51 0.49 0.55 0.66 0.81 0.98 1.15 1.27
0.10 0.14 0.19 0.21 0.21 0.20 0.19 0.19 0.19 0.22 0.36 0.46 0.44 0.42 0.37 0.37 0.47 0.66 0.71 0.64 0.69 0.72 0.72 0.79 0.77 0.66 0.57 0.52 0.51 0.52 0.52 0.57 0.66 0.68 0.58 0.49 0.45 0.51 0.62 0.74 0.91 1.06 1.26
0.11 0.15 0.20 0.23 0.23 0.24 0.21 0.21 0.23 0.25 0.45 0.68 0.64 0.65 0.64 0.62 0.72 0.99 0.99 0.88 0.88 0.89 0.89 0.87 0.76 0.62 0.55 0.49 0.44 0.40 0.41 0.48 0.56 0.57 0.58 0.58 0.55 0.57 0.60 0.65 0.83 0.99 1.17
0.15 0.17 0.21 0.25 0.26 0.26 0.26 0.26 0.26 0.28 0.36 0.42 0.46 0.57 0.58 0.71 0.84 0.83 0.82 0.82 0.86 0.88 0.89 0.84 0.67 0.56 0.50 0.47 0.45 0.43 0.39 0.41 0.43 0.49 0.55 0.58 0.60 0.61 0.61 0.62 0.76 0.92 1.01
0.19 0.22 0.26 0.27 0.29 0.30 0.31 0.32 0.31 0.28 0.28 0.30 0.33 0.40 0.50 0.64 0.70 0.71 0.77 0.73 0.72 0.74 0.73 0.62 0.54 0.51 0.47 0.45 0.44 0.42 0.39 0.35 0.39 0.49 0.55 0.57 0.60 0.63 0.63 0.64 0.68 0.79 0.87
0.23 0.26 0.29 0.31 0.32 0.33 0.35 0.34 0.33 0.33 0.32 0.32 0.32 0.35 0.43 0.52 0.59 0.64 0.72 0.70 0.65 0.59 0.56 0.53 0.50 0.48 0.46 0.44 0.43 0.43 0.41 0.39 0.42 0.46 0.48 0.49 0.54 0.62 0.62 0.58 0.60 0.73 0.82
0.23 0.25 0.29 0.32 0.34 0.35 0.37 0.37 0.36 0.34 0.34 0.35 0.35 0.38 0.44 0.47 0.51 0.55 0.55 0.54 0.55 0.52 0.49 0.48 0.47 0.49 0.48 0.45 0.42 0.41 0.42 0.43 0.41 0.42 0.43 0.43 0.47 0.57 0.60 0.53 0.56 0.68 0.88
0.22 0.27 0.32 0.33 0.35 0.36 0.39 0.40 0.40 0.40 0.40 0.39 0.41 0.45 0.52 0.58 0.58 0.52 0.46 0.45 0.48 0.49 0.47 0.48 0.46 0.47 0.49 0.48 0.47 0.45 0.45 0.43 0.41 0.42 0.42 0.43 0.46 0.54 0.57 0.54 0.59 0.70 0.80
0.25 0.28 0.32 0.33 0.34 0.37 0.41 0.45 0.46 0.48 0.49 0.46 0.42 0.43 0.66 0.78 0.66 0.50 0.46 0.46 0.49 0.53 0.52 0.49 0.44 0.43 0.46 0.49 0.51 0.49 0.46 0.43 0.42 0.46 0.47 0.46 0.49 0.55 0.54 0.57 0.62 0.69 0.78
0.30 0.33 0.34 0.35 0.36 0.39 0.45 0.47 0.48 0.50 0.50 0.47 0.43 0.41 0.47 0.48 0.46 0.44 0.44 0.44 0.47 0.50 0.53 0.55 0.50 0.43 0.45 0.51 0.55 0.56 0.51 0.44 0.41 0.47 0.52 0.51 0.53 0.56 0.57 0.62 0.65 0.72 0.80
0.36 0.38 0.37 0.36 0.37 0.43 0.44 0.42 0.45 0.48 0.48 0.46 0.44 0.42 0.41 0.41 0.42 0.44 0.46 0.44 0.46 0.50 0.51 0.54 0.54 0.47 0.43 0.47 0.53 0.60 0.62 0.52 0.47 0.55 0.65 0.63 0.60 0.59 0.62 0.65 0.67 0.73 0.78
0.42 0.43 0.42 0.39 0.39 0.42 0.43 0.43 0.44 0.45 0.47 0.47 0.45 0.44 0.44 0.42 0.40 0.40 0.42 0.44 0.46 0.48 0.50 0.53 0.54 0.50 0.46 0.48 0.51 0.52 0.55 0.61 0.76 0.85 0.81 0.81 0.73 0.65 0.66 0.70 0.68 0.70 0.76
0.41 0.43 0.43 0.44 0.45 0.46 0.48 0.46 0.45 0.46 0.47 0.48 0.47 0.45 0.43 0.42 0.40 0.38 0.40 0.45 0.49 0.50 0.48 0.49 0.51 0.51 0.49 0.47 0.46 0.47 0.54 0.70 0.89 1.15 1.31 1.24 1.01 0.80 0.76 0.77 0.74 0.74 0.79
0.39 0.38 0.40 0.43 0.46 0.50 0.53 0.53 0.51 0.50 0.53 0.51 0.48 0.48 0.48 0.47 0.44 0.42 0.45 0.53 0.59 0.58 0.54 0.52 0.49 0.48 0.49 0.48 0.46 0.49 0.62 0.82 1.01 1.22 1.57 1.70 1.36 1.00 0.86 0.88 0.83 0.83 0.87